Regional Weather Roundup
Issued by NWS

Home | Current Version | Previous Version | Text Only | Print | Product List | Glossary On
Versions: 1 2 3 4 5 6 7 8 9 10 11 12 13 14 15 16 17 18 19 20 21 22 23 24 25 26 27 28 29 30 31 32 33 34 35 36 37 38 39 40 41 42 43 44 45 46 47 48 49 50
000
ASUS42 KFFC 312003
RWRGA
WEATHER ROUNDUP FOR GEORGIA
NATIONAL WEATHER SERVICE PEACHTREE CITY GA
400 PM EDT MON AUG 31 2015

NOTE: "FAIR" INDICATES FEW OR NO CLOUDS BELOW 12,000 FEET WITH NO
SIGNIFICANT WEATHER AND/OR OBSTRUCTIONS TO VISIBILITY.

* = USE WITH CAUTION. THE STATIONS MARKED WITH AN ASTERISK MAY NOT
REPORT WEATHER SUCH AS PRECIPITATION, FOG, OR THUNDER AND ARE NOT
QUALITY CONTROLLED BY NWS.

THE REMARK "TC" DENOTES TEMPERATURE READING IN DEGREES CELSIUS.

GAZ001>058-312100-
NORTH GEORGIA

CITY           SKY/WX    TMP DP  RH WIND       PRES   REMARKS
ATLANTA        PTSUNNY   78  67  68 NW3       30.10F
ATHENS         SUNNY     85  64  49 CALM      30.09F
CHAMBLEE       CLOUDY    81  68  64 VRB3      30.10F
PEACHTREE CITY CLOUDY    80  69  69 N8        30.11F
ROME           CLOUDY    82  68  62 N6        30.09F
WEST ATLANTA   CLOUDY    81  68  64 N5        30.10F
GAINESVILLE    MOSUNNY   81  64  56 CALM      30.12F
CARTERSVILLE   PTSUNNY   82  68  62 W3        30.10F


CITY           SKY/WX    TMP DP  RH WIND       PRES   REMARKS
DALTON*        CLOUDY    81  68  65 CALM      30.10F
LAWRENCEVILLE* PTSUNNY   81  63  54 CALM      30.11F
MARIETTA       PTSUNNY   81  67  63 VRB1      30.11F
KENNESAW*      PTSUNNY   79  66  65 CALM      30.12F
BLAIRSVILLE*     N/A     82  24  11 W3        30.13F
$$

GAZ059>098-102>109-312100-
CENTRAL GEORGIA

CITY           SKY/WX    TMP DP  RH WIND       PRES   REMARKS
AUGUSTA-BUSH   PTSUNNY   84  69  60 N3        30.07F
AUGUSTA-DANIEL PTSUNNY   90  69  50 N3        30.09F HX  94
COLUMBUS       CLOUDY    85  68  56 E7        30.05F
MACON          MOSUNNY   85  69  58 NE6       30.07F
ROBINS AFB     PTSUNNY   84  71  66 E6        30.06F


CITY           SKY/WX    TMP DP  RH WIND       PRES   REMARKS
LAGRANGE*      CLOUDY    85  74  69 CALM      30.09F HX  93
SYLVANIA*      CLOUDY    82  75  79 N5        30.08F
MILLEDGEVILLE* PTSUNNY   82  68  61 E3        30.09F
$$

GAZ099>101-110>166-312100-
SOUTH GEORGIA

CITY           SKY/WX    TMP DP  RH WIND       PRES   REMARKS
SAVANNAH       PTSUNNY   83  72  69 CALM      30.05F
VALDOSTA       SUNNY     90  71  53 N8        30.04F HX  96
ALMA           PTSUNNY   88  70  55 NE8       30.05F HX  93
ST SIMONS      SUNNY     85  75  72 E10       30.04F HX  93
FT STEWART     MOSUNNY   86  72  63 CALM      30.03F HX  92
ALBANY         PTSUNNY   88  68  51 NE6       30.06F HX  91
HUNTER AFB     MOSUNNY   85  78  79 NW5       30.03F HX  97
MOODY AFB      MOSUNNY   86  68  54 N9        30.04F HX  90
BRUNSWICK      CLOUDY    84  75  74 E7        30.05F HX  92


CITY           SKY/WX    TMP DP  RH WIND       PRES   REMARKS
BAINBRIDGE*    SUNNY     91  68  46 N8        30.04F HX  95
MOULTRIE*      SUNNY     90  70  51 NE3       30.06F HX  95
VIDALIA*       CLOUDY    79  72  78 N7        30.09F
WAYCROSS*      PTSUNNY   89  74  61 NE5       30.04F HX  98
DOUGLAS*       PTSUNNY   90  68  48 NE8       30.07F HX  93
$$



USA.gov is the U.S. government's official web portal to all federal, state and local government web resources and services.